Regional Weather Roundup
Issued by NWS

Home | Current Version | Previous Version | Text Only | Print | Product List | Glossary On
Versions: 1 2 3 4 5 6 7 8 9 10 11 12 13 14 15 16 17 18 19 20 21 22 23 24 25 26 27 28 29 30 31 32 33 34 35 36 37 38 39 40 41 42 43 44 45 46 47 48 49 50
000
ASUS45 KABQ 230510
RWRNM
NEW MEXICO REGIONAL WEATHER ROUNDUP
NATIONAL WEATHER SERVICE ALBUQUERQUE NM
1000 PM MST SUN JAN 22 2017

NOTE: "FAIR" MEANS FEW OR NO CLOUDS BELOW 12,000 FEET AGL WITH NO
       SIGNIFICANT WEATHER OR OBSTRUCTIONS TO VISION.

      THIS PRODUCT IS RELEASED AS TWO VERSIONS.  ONE VERSION NEAR
      THE TOP OF THE HOUR CONTAINING PRELIMINARY DATA FROM ALBUQUERQUE
      AND OTHER STATIONS.  A FINAL VERSION WITH ADDITIONAL DATA IS
      ISSUED ABOUT 10 MINUTES AFTER THE HOUR.

NMZ501-503-504-510>518-230600-
NORTHWEST PLATEAU/NORTHCENTRAL MOUNTAINS

CITY           SKY/WX    TMP DP  RH WIND       PRES   REMARKS
FARMINGTON     CLOUDY    30  28  92 E14       30.06F WCI  19
LOS ALAMOS     MOCLDY    31  21  67 S5        30.07F WCI  26
SANTA FE       CLOUDY    34  23  64 W5        30.08F WCI  30
TAOS           CLOUDY    30  12  47 S6        30.06F WCI  24
ANGEL FIRE     FAIR      22  11  63 S5        30.05R WCI  15

$$
NMZ402-403-502-505>509-230600-
WESTCENTRAL MOUNTAINS/SOUTHWEST MOUNTAINS

CITY           SKY/WX    TMP DP  RH WIND       PRES   REMARKS
GALLUP         CLOUDY    32  27  81 S7        30.08S WCI  26
GRANTS         CLOUDY    32  29  90 S12       30.10S WCI  23
SILVER CITY    FAIR      33  27  77 NW10      30.15F WCI  25

$$
NMZ407-409-411-412-230600-
SOUTHERN DESERTS

CITY           SKY/WX    TMP DP  RH WIND       PRES   REMARKS
DEMING         FAIR      39  30  70 W7        30.14S WCI  34
LAS CRUCES     FAIR      41  29  62 W10       30.15R
HOLLOMAN AFB   FAIR      37  29  74 E6        30.15R WCI  32
ALAMOGORDO     FAIR      37  25  60 E5        30.13R WCI  34
T OR C         FAIR      38  30  73 E3        30.10R

$$
NMZ519>523-230600-
CENTRAL VALLEYS/CENTRAL HIGHLANDS

CITY           SKY/WX    TMP DP  RH WIND       PRES   REMARKS
ALBUQUERQUE    CLOUDY    38  31  76 SE6       30.11F WCI  33
DOUBLE EAGLE   CLOUDY    34  30  86 S3        30.11S
MORIARTY ARPT  CLOUDY    33  25  72 NW6       30.10S WCI  28
CLINES CORNERS CLOUDY    29  21  72 W22       30.05S WCI  15
BELEN          CLOUDY    38  32  78 NE3       30.10F
SOCORRO        FAIR      37  23  57 NW3       30.11S

$$
NMZ524>526-539-540-230600-
SOUTHCENTRAL MOUNTAINS

CITY           SKY/WX    TMP DP  RH WIND       PRES   REMARKS
RUIDOSO        FAIR      37  25  60 CALM      30.09S

$$
NMZ527>531-230600-
NORTHEAST HIGHLANDS/NORTHEAST PLAINS

CITY           SKY/WX    TMP DP  RH WIND       PRES   REMARKS
LAS VEGAS      FAIR      29  17  61 S10       29.96F WCI  20
RATON          FAIR      28  16  60 VRB6      29.94S WCI  22
CLAYTON        FAIR      33  22  63 SW7       29.97R WCI  27

$$
NMZ532>537-230600-
EASTCENTRAL PLAINS

CITY           SKY/WX    TMP DP  RH WIND       PRES   REMARKS
TUCUMCARI      FAIR      33  21  61 SW9       29.96F WCI  25
CANNON AFB     MOCLDY    39  18  42 SW10      30.00S WCI  33
CLOVIS AIRPORT FAIR      39  18  41 NW3       30.00S

$$
NMZ028-029-538-230600-
SOUTHEAST PLAINS

CITY           SKY/WX    TMP DP  RH WIND       PRES   REMARKS
ROSWELL        FAIR      37  21  52 CALM      30.04R
ARTESIA        FAIR      46  25  42 W14       30.03F
CARLSBAD       FAIR      47  24  40 W6        30.03S


$$



USA.gov is the U.S. government's official web portal to all federal, state and local government web resources and services.